Printer-friendly version

IAU Minor Planet Center

Minor Planet Center

MPEC 2005-C15 : 2005 CJ

The following Minor Planet Electronic Circular may be linked-to from your own Web pages, but must not otherwise be redistributed electronically.


Read MPEC 2005-C14 Read MPEC 2005-C16


M.P.E.C. 2005-C15                                Issued 2005 Feb. 3, 13:05 UT

     The Minor Planet Electronic Circulars contain information on unusual
         minor planets and routine data on comets.  They are published
   on behalf of Commission 20 of the International Astronomical Union by the
          Minor Planet Center, Smithsonian Astrophysical Observatory,
                          Cambridge, MA 02138, U.S.A.

                  Supported in part by the Brinson Foundation
             Prepared using the Tamkin Foundation Computer Network

                              MPC@CFA.HARVARD.EDU
          URL http://cfa-www.harvard.edu/iau/mpc.html  ISSN 1523-6714

                                    2005 CJ

Observations:
     K05C00J* C2005 02 01.47965 14 37 23.07 -08 48 48.1          18.3 V EC015691
     K05C00J  C2005 02 01.50524 14 37 08.23 -08 48 06.0          18.4 V EC015691
     K05C00J  C2005 02 01.53061 14 36 53.52 -08 47 24.1          18.5 V EC015691
     K05C00J  C2005 02 02.48146 14 28 22.55 -08 21 08.3          18.6 V EC015691
     K05C00J  C2005 02 02.48613 14 28 19.93 -08 21 00.7          18.4 V EC015691
     K05C00J  C2005 02 02.49216 14 28 16.63 -08 20 51.1          18.5 V EC015691
     K05C00J 2C2005 02 03.41107 14 20 25.99 -07 55 56.8          17.6 R EC015H06
     K05C00J 2C2005 02 03.41665 14 20 23.11 -07 55 47.6          17.9 R EC015H06
     K05C00J 2C2005 02 03.42215 14 20 20.23 -07 55 38.6          17.9 R EC015H06
     K05C00J 5C2005 02 03.52130 14 19 28.86 -07 53 01.3          18.7 R EC015673
     K05C00J 5C2005 02 03.52419 14 19 27.45 -07 52 57.4                 EC015673
     K05C00J 5C2005 02 03.52650 14 19 26.16 -07 52 53.1                 EC015673
     K05C00J 5C2005 02 03.53021 14 19 24.35 -07 52 47.1                 EC015673

Observer details:
673 Table Mountain Observatory, Wrightwood.  Observer J. Young.  0.6-m
    reflector + CCD.
691 Steward Observatory, Kitt Peak.  Observers M. Block, J. V. Scotti.  0.9-m
    f/3 reflector + CCD.
H06 New Mexico Skies Observatory.  Observer R. Hutsebaut.  0.25-m reflector
    + CCD.

Orbital elements:
2005 CJ                                                              PHA 0.007
Epoch 2005 Jan. 30.0 TT = JDT 2453400.5                 MPC
M  16.89854              (2000.0)            P               Q
n   0.42933942     Peri.   81.39775     +0.17837547     -0.98396234
a   1.7402122      Node   358.32680     +0.89517883     +0.16251309
e   0.5230766      Incl.    1.08196     +0.40845692     +0.07353642
P   2.30           H   20.5           G   0.15
From 13 observations 2005 Feb. 1-3.

Ephemeris:
2005 CJ                  a,e,i = 1.74, 0.52, 1                   q = 0.8299
Date    TT    R. A. (2000) Decl.     Delta      r     Elong.  Phase     V
2005 01 30    15 01.71   -09 58.1    0.104    0.980    84.3    89.7    18.7
2005 02 09    13 39.36   -05 34.6    0.134    1.051   115.1    58.2    18.3
2005 02 19    12 46.29   -02 08.0    0.176    1.127   138.8    35.3    18.4
2005 03 01    12 09.40   +00 29.0    0.228    1.206   158.4    17.6    18.6
2005 03 11    11 43.73   +02 22.3    0.293    1.286   175.1     3.8    18.7
2005 03 21    11 27.24   +03 34.1    0.373    1.365   170.7     6.8    19.5
2005 03 31    11 18.27   +04 09.7    0.467    1.444   158.5    14.7    20.5
2005 04 10    11 15.11   +04 16.3    0.576    1.521   147.9    20.5    21.2
2005 04 20    11 16.42   +03 59.9    0.697    1.595   138.5    24.7    21.9

Timothy B. Spahr             (C) Copyright 2005 MPC           M.P.E.C. 2005-C15

Read MPEC 2005-C14 Read MPEC 2005-C16


Our Web policy. Index to the CBAT/MPC/ICQ pages.


Valid HTML 4.01!